Location: Estes Par
(40.3770°N, 10.0000°W)
Time: 13:53:54
(UTC-06:00)

N. Korean satellite - Visible Passes

Search period start: 20 October 2017 00:00
Search period end: 30 October 2017 00:00
Orbit: 459 x 517 km, 97.2° (Epoch: 19 October)

Date Brightness Start Highest point End Pass type
(mag) Time Alt. Az. Time Alt. Az. Time Alt. Az.
20 Oct 9.2 13:29:18 10° SSW 13:32:03 21° W 13:34:48 10° NW visible
21 Oct 7.8 13:05:17 10° S 13:08:38 43° W 13:11:57 10° NNW visible
22 Oct 6.4 12:41:47 10° SSE 12:45:16 86° ENE 12:48:45 10° N visible
23 Oct 6.9 12:18:43 10° SE 12:21:59 39° ENE 12:25:14 10° N visible
23 Oct 10.1 13:54:52 10° WSW 13:55:41 11° W 13:56:31 10° WNW visible
24 Oct 9.2 13:29:29 10° SW 13:32:11 21° W 13:34:53 10° NW visible
25 Oct 7.8 13:05:26 10° S 13:08:45 42° W 13:12:03 10° NNW visible
26 Oct 10.0 00:34:03 10° ENE 00:36:03 14° E 00:38:03 10° SE visible
26 Oct 6.4 12:41:54 10° SSE 12:45:22 87° ENE 12:48:49 10° N visible
27 Oct 6.9 12:18:50 10° SE 12:22:04 39° ENE 12:25:18 10° N visible
27 Oct 10.1 13:55:09 10° WSW 13:55:48 10° W 13:56:26 10° W visible
28 Oct 9.2 13:29:37 10° SW 13:32:15 20° W 13:34:55 10° NW visible
29 Oct 7.8 13:05:32 10° S 13:08:48 41° W 13:12:05 10° NNW visible
